Kansas Department of Transportation
RWIS(Road and Runway Information System) Map and Weather Data





Station
Surface
Air
Wind
Site IDSensor TypeLocationTemperature (°F)Temperature (°F)Humidity (%)Speed (mi/h)Gusts (mi/h)DirectionTime
123002AtmosphericBonner Springs 43731 WApr 14 2021 2:40AM
123002ApproachBonner Springs50     Apr 14 2021 2:40AM
123002DeckBonner Springs      Apr 14 2021 2:40AM
123014AtmosphericBull Creek 48524 NNEApr 14 2021 2:40AM
123014DeckBull Creek46     Apr 14 2021 2:40AM
123014DepartureBull Creek48     Apr 14 2021 2:40AM
123015AtmosphericLeavenworth 485747NNEApr 14 2021 2:40AM
123015DeckLeavenworth50     Apr 14 2021 2:40AM
123015DepartureLeavenworth54     Apr 14 2021 2:40AM
505000AtmosphericKTA 1 54900NNEApr 14 2021 2:30AM
505000ApproachKTA 152     Apr 14 2021 2:40AM
505000DeckKTA 152     Apr 14 2021 2:40AM
505002AtmosphericKTA 3 438001WSWApr 14 2021 2:32AM
505002ApproachKTA 350     Apr 14 2021 2:32AM
505002DeckKTA 350     Apr 14 2021 2:32AM
505003AtmosphericKTA 4 435312NApr 14 2021 2:32AM
505003ApproachKTA 4Unavailable     Apr 14 2021 2:32AM
505003DeckKTA 4Unavailable     Apr 14 2021 2:32AM
505004AtmosphericKTA 5 419544SWApr 14 2021 2:32AM
505004RoadwayKTA 548     Apr 14 2021 2:32AM
505004RoadwayKTA 548     Apr 14 2021 2:32AM
505005AtmosphericKTA 6 398512NWApr 14 2021 2:32AM
505005Approach KTA 648     Apr 14 2021 2:32AM
505005DeckKTA 646     Apr 14 2021 2:32AM
505006AtmosphericKTA 7 438400WSWApr 14 2021 2:32AM
505006ApproachKTA 750     Apr 14 2021 2:32AM
505006DeckKTA 748     Apr 14 2021 2:32AM
505007AtmosphericKTA 8 484622NApr 14 2021 2:32AM
505007ApproachKTA 852     Apr 14 2021 2:32AM
505007DeckKTA 850     Apr 14 2021 2:32AM
505008AtmosphericKTA 9 437911NEApr 14 2021 2:32AM
505008ApproachKTA 948     Apr 14 2021 2:32AM
505008DeckKTA 948     Apr 14 2021 2:32AM
505010AtmosphericWebb 46493 WApr 14 2021 2:40AM
505010DeckWebb48     Apr 14 2021 2:40AM
505010NullWebb50     Apr 14 2021 2:40AM
505014AtmosphericI-135 465135NNEApr 14 2021 2:35AM
505014ApproachI-13550     Apr 14 2021 2:35AM
505014DeckI-13550     Apr 14 2021 2:35AM
540000AtmosphericBlue Rapids 39655 NApr 14 2021 2:40AM
540000DeckBlue Rapids46     Apr 14 2021 2:40AM
540000DepartureBlue RapidsUnavailable     Apr 14 2021 2:40AM
540001AtmosphericSabetha 41623 NApr 14 2021 2:40AM
540001ApproachSabethaUnavailable     Apr 14 2021 2:40AM
540001DeckSabethaUnavailable     Apr 14 2021 2:40AM
540002AtmosphericWestgate 43832 NWApr 14 2021 2:40AM
540002DeckWestgate46     Apr 14 2021 2:40AM
540002DepartureWestgateUnavailable     Apr 14 2021 2:40AM
540003AtmosphericEmporia 45622 NApr 14 2021 2:40AM
540003ApproachEmporia48     Apr 14 2021 2:40AM
540003DeckEmporia48     Apr 14 2021 2:40AM
540005AtmosphericLawrence 418212WApr 14 2021 2:40AM
540005ApproachLawrence46     Apr 14 2021 2:40AM
540005DeckLawrence46     Apr 14 2021 2:40AM
540007AtmosphericManhattan 43681 ESEApr 14 2021 2:40AM
540007DepartureManhattan48     Apr 14 2021 2:40AM
540007DeckManhattan52     Apr 14 2021 2:40AM
541000AtmosphericElkhart 43486 EApr 14 2021 2:40AM
541000ApproachElkhart50     Apr 14 2021 2:40AM
541000DeckElkhart46     Apr 14 2021 2:40AM
541003AtmosphericFord 36780 ENEApr 14 2021 2:40AM
541003DeckFordUnavailable     Apr 14 2021 2:40AM
541003DepartureFord45     Apr 14 2021 2:40AM
541004AtmosphericScott 34771 NNWApr 14 2021 2:40AM
541004DepartureScott      Apr 14 2021 2:40AM
541005AtmosphericNess 34681 WNWApr 14 2021 2:40AM
541005DeckNess45     Apr 14 2021 2:40AM
541005DepartureNess48     Apr 14 2021 2:40AM
541007AtmosphericGarden City 41613 ESEApr 14 2021 2:40AM
541007ApproachGarden City      Apr 14 2021 2:40AM
541007DeckGarden City45     Apr 14 2021 2:40AM
543000AtmosphericJunction City 41540 NNEApr 14 2021 2:40AM
543000ApproachJunction City52     Apr 14 2021 2:40AM
543000DeckJunction CityUnavailable     Apr 14 2021 2:40AM
543001AtmosphericEllsworth 46506 WSWApr 14 2021 2:40AM
543001RoadwayEllsworth50     Apr 14 2021 2:40AM
543002AtmosphericMcPherson 43605 WNWApr 14 2021 2:40AM
543002ApproachMcPherson46     Apr 14 2021 2:40AM
543002DeckMcPherson45     Apr 14 2021 2:40AM
543003AtmosphericSalina 43582 EApr 14 2021 2:40AM
543003DepartureSalina52     Apr 14 2021 2:40AM
543003RoadwaySalina48     Apr 14 2021 2:40AM
543004AtmosphericConcordia 43586 NNEApr 14 2021 2:40AM
543004ApproachConcordia      Apr 14 2021 2:40AM
543004DeckConcordia45     Apr 14 2021 2:40AM
543005AtmosphericPeabody 45554 NWApr 14 2021 2:40AM
543005ApproachPeabody43     Apr 14 2021 2:40AM
543005DeckPeabody45     Apr 14 2021 2:40AM
560000AtmosphericEdson 37481 WApr 14 2021 2:40AM
560000RoadwayEdson      Apr 14 2021 2:40AM
560000RoadwayEdson      Apr 14 2021 2:40AM
560001AtmosphericOakley 39442 WSWApr 14 2021 2:40AM
560001ApproachOakley41     Apr 14 2021 2:40AM
560001DeckOakley39     Apr 14 2021 2:40AM
560002AtmosphericAtwood 36554 NNEApr 14 2021 2:40AM
560002ApproachAtwoodUnavailable     Apr 14 2021 2:40AM
560002DeckAtwoodUnavailable     Apr 14 2021 2:40AM
560003AtmosphericJennings 36585 ENEApr 14 2021 2:40AM
560003ApproachJennings45     Apr 14 2021 2:40AM
560003DeckJennings43     Apr 14 2021 2:40AM
560003DeckJennings43     Apr 14 2021 2:40AM
560004AtmosphericWakeeney 41532 WNWApr 14 2021 2:40AM
560004ApproachWakeeney48     Apr 14 2021 2:40AM
560004DeckWakeeney43     Apr 14 2021 2:40AM
560005AtmosphericWalker 37674 SWApr 14 2021 2:40AM
560005ApproachWalker45     Apr 14 2021 2:40AM
560005DeckWalker43     Apr 14 2021 2:40AM
560006AtmosphericBow Creek(Stockton) 39523 NEApr 14 2021 2:40AM
560006ApproachBow Creek(Stockton)46     Apr 14 2021 2:40AM
560006DeckBow Creek(Stockton)153     Apr 14 2021 2:40AM
560007AtmosphericLebanon 37607 NNEApr 14 2021 2:40AM
560007ApproachLebanonUnavailable     Apr 14 2021 2:40AM
560007DeckLebanon41     Apr 14 2021 2:40AM
560008AtmosphericWallace 39532 NWApr 14 2021 2:40AM
560008ApproachWallaceUnavailable     Apr 14 2021 2:40AM
560008DeckWallace43     Apr 14 2021 2:40AM
572000AtmosphericGreat Bend 39662 WSWApr 14 2021 2:40AM
572000ApproachGreat BendUnavailable     Apr 14 2021 2:40AM
572000DeckGreat Bend43     Apr 14 2021 2:40AM
572001AtmosphericPratt 34480 SSWApr 14 2021 2:40AM
572001ApproachPratt45     Apr 14 2021 2:40AM
572001DeckPratt      Apr 14 2021 2:40AM
572002AtmosphericAnthony 45623 SApr 14 2021 2:40AM
572002ApproachAnthony118     Apr 14 2021 2:40AM
572002DeckAnthony113     Apr 14 2021 2:40AM
573000AtmosphericEureka 43642 WNWApr 14 2021 2:40AM
573000DeckEureka50     Apr 14 2021 2:40AM
573000DepartureEureka50     Apr 14 2021 2:40AM
573001AtmosphericGarnett 50551 NApr 14 2021 2:40AM
573001ApproachGarnettUnavailable     Apr 14 2021 2:40AM
573001DeckGarnettUnavailable     Apr 14 2021 2:40AM
573003AtmosphericChetopa 54530 NApr 14 2021 2:40AM
573003DeckChetopa61     Apr 14 2021 2:40AM
573003DepartureChetopaUnavailable     Apr 14 2021 2:40AM
573004AtmosphericChanute 50562 NNWApr 14 2021 2:40AM
573004ApproachChanute57     Apr 14 2021 2:40AM
573004DeckChanute54     Apr 14 2021 2:40AM